{"data":{"norad_id":58488,"epoch":"2026-09-20T20:26:56.492736Z","epoch_age_seconds":116296,"freshness":"FRESH","line1":"1 58488U 23186R   26263.85204274  .00001424  00000+0  61270-4 0  9994","line2":"2 58488  43.0023  41.4846 0001686 293.1499  66.9175 15.27581416155737","mean_motion":15.27581416,"eccentricity":0.0001686,"inclination_deg":43.0023,"raan_deg":41.4846,"arg_perigee_deg":293.1499,"mean_anomaly_deg":66.9175,"bstar":6.127e-5,"rev_number":15573,"period_min":94.26666133257,"perigee_km":481.8880607686,"apogee_km":484.20165129045,"semimajor_km":6861.1818560295,"source":"CELESTRAK","updated_at":"2026-09-21T09:00:33.883231Z"}}